Weather History for Athens, OH

Change the Weather History Date:

Saturday, March 2, 2013

  Actual Average (KPKB) Record (KPKB)
Temperature  
Mean Temperature 28 °F 39 °F  
Max Temperature 31 °F 49 °F 79 °F (1991)
Min Temperature 25 °F 29 °F 1 °F (1980)
Degree Days  
Heating Degree Days 37 26  
Month to date heating degree days 53  
Since 1 July heating degree days 3843  
Cooling Degree Days 0 0  
Month to date cooling degree days 0  
Year to date cooling degree days 0  
Moisture  
Dew Point 22 °F    
Average Humidity 77    
Maximum Humidity 89    
Minimum Humidity 65    
Precipitation  
Precipitation 0.00 in 0.11 in 0.58 in (2002)
Month to date precipitation 0.21  
Year to date precipitation 5.86  
Sea Level Pressure  
Sea Level Pressure 29.99 in    
Wind  
Wind Speed 6 mph (NW)    
Max Wind Speed 10 mph    
Max Gust Speed 17 mph    
Visibility 8 miles    
Events Snow    
T = Trace of Precipitation, MM = Missing Value Source: NWS Daily Summary

Daily Weather History Graph

Daily Weather History Graph

Search for Another Location

Airport:

Trip Planner

Search our weather history database for the weather conditions in past years. The results will help you decide how hot, cold, wet, or windy it might be!

Date:

Astronomy

Mar. 02, 2013 Rise Set
Actual Time 6:59 AM EST 6:22 PM EST
Civil Twilight 6:32 AM EST 6:49 PM EST
Nautical Twilight 6:01 AM EST 7:20 PM EST
Astronomical Twilight 5:30 AM EST 7:51 PM EST
Moon 11:58 PM EST 9:29 AM EST
Length of Visible Light 12h 16m
Length of Day
11h 22m
Waning Gibbous, 74% of the Moon is Illuminated
Mar 2
Waning Gibbous
Mar 4
Last Quarter
Mar 11
New
Mar 19
First Quarter
Mar 27
Full

Hourly Weather History & Observations

Time (EST) Temp. Windchill Dew Point Humidity Pressure Visibility Wind Dir Wind Speed Gust Speed Precip Events Conditions
12:15 AM 29.3 °F 23.2 °F 19.9 °F 68% 30.00 in 10.0 mi North 5.8 mph - N/A   Overcast
12:35 AM 29.3 °F 23.2 °F 19.4 °F 67% 30.00 in 10.0 mi North 5.8 mph - N/A   Overcast
12:55 AM 29.1 °F 22.1 °F 19.8 °F 68% 30.00 in 10.0 mi North 6.9 mph - N/A   Overcast
1:15 AM 28.9 °F 21.9 °F 19.4 °F 68% 30.00 in 10.0 mi North 6.9 mph - N/A   Overcast
1:35 AM 28.9 °F 22.8 °F 19.4 °F 68% 30.00 in 10.0 mi NNE 5.8 mph - N/A   Overcast
1:55 AM 28.8 °F 22.6 °F 19.0 °F 67% 30.00 in 10.0 mi NNE 5.8 mph - N/A   Overcast
2:15 AM 28.4 °F 22.2 °F 18.9 °F 67% 30.00 in 10.0 mi North 5.8 mph - N/A   Overcast
2:35 AM 28.4 °F 22.2 °F 18.9 °F 67% 29.99 in 10.0 mi North 5.8 mph - N/A   Overcast
2:55 AM 28.2 °F 24.4 °F 18.5 °F 67% 29.99 in 10.0 mi North 3.5 mph - N/A   Overcast
3:15 AM 28.0 °F 24.2 °F 18.3 °F 67% 29.98 in 10.0 mi North 3.5 mph - N/A   Overcast
3:35 AM 27.7 °F 23.8 °F 19.6 °F 72% 29.98 in 10.0 mi NNW 3.5 mph - N/A Snow Light Snow
3:55 AM 27.3 °F 20.9 °F 20.8 °F 77% 29.98 in 10.0 mi NW 5.8 mph - N/A Snow Light Snow
4:15 AM 27.0 °F 23.0 °F 22.1 °F 82% 29.97 in 4.0 mi NW 3.5 mph - N/A Snow Light Snow
4:35 AM 27.0 °F 21.6 °F 22.6 °F 84% 29.97 in 3.0 mi NW 4.6 mph - N/A Snow Light Snow
4:55 AM 26.8 °F 21.4 °F 22.6 °F 84% 29.97 in 3.0 mi NW 4.6 mph - N/A Snow Light Snow
5:15 AM 26.6 °F 20.0 °F 22.3 °F 84% 29.98 in 2.5 mi NW 5.8 mph - N/A Snow Light Snow
5:35 AM 26.6 °F - 22.8 °F 86% 29.98 in 2.0 mi Calm Calm - N/A Snow Light Snow
5:55 AM 26.2 °F 22.1 °F 22.8 °F 87% 29.98 in 2.0 mi NNW 3.5 mph - N/A Snow Light Snow
6:15 AM 26.1 °F 21.9 °F 23.0 °F 88% 29.98 in 1.8 mi NNW 3.5 mph - N/A Snow Light Snow
6:35 AM 25.9 °F 21.7 °F 22.8 °F 88% 29.98 in 2.0 mi NNW 3.5 mph - N/A Snow Light Snow
6:55 AM 25.7 °F 21.5 °F 22.6 °F 88% 29.99 in 4.0 mi NNW 3.5 mph - N/A Snow Light Snow
7:15 AM 25.7 °F - 22.6 °F 88% 29.99 in 2.5 mi Calm Calm - N/A Snow Light Snow
7:35 AM 25.7 °F 21.5 °F 22.8 °F 89% 30.00 in 3.0 mi NNW 3.5 mph - N/A Snow Light Snow
7:55 AM 26.1 °F 21.9 °F 23.0 °F 88% 30.00 in 2.0 mi NW 3.5 mph - N/A Snow Light Snow
8:15 AM 26.1 °F 21.9 °F 23.0 °F 88% 30.00 in 2.0 mi NW 3.5 mph - N/A Snow Light Snow
8:35 AM 26.6 °F 19.1 °F 22.8 °F 86% 30.00 in 7.0 mi WNW 6.9 mph - N/A Snow Light Snow
8:55 AM 27.1 °F 21.8 °F 23.0 °F 84% 30.00 in 5.0 mi NNW 4.6 mph - N/A Snow Light Snow
9:15 AM 27.3 °F 23.4 °F 23.0 °F 84% 29.99 in 5.0 mi NW 3.5 mph - N/A Snow Light Snow
9:35 AM 28.0 °F 20.0 °F 23.4 °F 83% 30.00 in 5.0 mi NW 8.1 mph - N/A Snow Light Snow
9:55 AM 28.0 °F 20.8 °F 23.2 °F 82% 29.99 in 2.0 mi NNW 6.9 mph - N/A Snow Light Snow
10:15 AM 27.5 °F 22.2 °F 23.0 °F 83% 29.99 in 2.0 mi NW 4.6 mph - N/A Snow Light Snow
10:35 AM 28.9 °F 21.9 °F 23.2 °F 79% 29.99 in 5.0 mi NW 6.9 mph - N/A Snow Light Snow
10:55 AM 29.1 °F 23.0 °F 23.0 °F 78% 29.99 in 10.0 mi WNW 5.8 mph - N/A Snow Light Snow
11:15 AM 29.3 °F 24.3 °F 22.3 °F 75% 29.99 in 10.0 mi North 4.6 mph - N/A   Overcast
11:55 AM 29.1 °F 22.1 °F 21.6 °F 73% 29.99 in 10.0 mi North 6.9 mph - N/A   Overcast
12:15 PM 29.3 °F 20.2 °F 21.7 °F 73% 30.00 in 10.0 mi NW 10.4 mph - N/A Snow Light Snow
12:35 PM 29.1 °F 22.1 °F 19.8 °F 68% 29.99 in 10.0 mi NNW 6.9 mph - N/A   Overcast
12:55 PM 29.5 °F 21.1 °F 20.8 °F 70% 29.99 in 10.0 mi NW 9.2 mph - N/A Snow Light Snow
1:15 PM 29.7 °F 23.7 °F 20.3 °F 68% 29.98 in 10.0 mi NW 5.8 mph - N/A   Overcast
1:35 PM 30.2 °F 24.3 °F 21.7 °F 71% 29.98 in 10.0 mi WNW 5.8 mph - N/A Snow Light Snow
1:55 PM 30.2 °F 21.9 °F 21.2 °F 69% 29.97 in 10.0 mi WNW 9.2 mph - N/A Snow Light Snow
2:15 PM 29.8 °F 23.9 °F 21.7 °F 72% 29.97 in 10.0 mi NW 5.8 mph - N/A Snow Light Snow
2:35 PM 30.2 °F 25.4 °F 22.1 °F 72% 29.97 in 10.0 mi WNW 4.6 mph - N/A   Overcast
2:55 PM 30.7 °F 24.9 °F 20.7 °F 66% 29.97 in 10.0 mi WNW 5.8 mph - N/A Snow Light Snow
3:15 PM 30.7 °F 22.6 °F 20.1 °F 65% 29.97 in 10.0 mi NW 9.2 mph - N/A   Overcast
3:35 PM 31.1 °F 22.4 °F 20.5 °F 65% 29.97 in 10.0 mi WNW 10.4 mph - N/A   Overcast
3:55 PM 30.2 °F 21.3 °F 19.8 °F 65% 29.97 in 10.0 mi WNW 10.4 mph 17.3 mph N/A   Overcast
4:15 PM 30.6 °F 23.1 °F 20.8 °F 67% 29.98 in 10.0 mi WNW 8.1 mph - N/A   Overcast
4:35 PM 30.0 °F 21.1 °F 21.9 °F 72% 29.98 in 10.0 mi WNW 10.4 mph - N/A Snow Light Snow
5:15 PM 29.3 °F 22.3 °F 21.7 °F 73% 29.98 in 10.0 mi WNW 6.9 mph - N/A   Overcast
5:35 PM 29.3 °F 22.3 °F 22.1 °F 75% 29.99 in 10.0 mi WNW 6.9 mph - N/A   Overcast
5:55 PM 29.1 °F 22.1 °F 21.9 °F 74% 29.99 in 10.0 mi WNW 6.9 mph - N/A Snow Light Snow
6:15 PM 29.1 °F 22.1 °F 21.6 °F 73% 30.00 in 10.0 mi WNW 6.9 mph - N/A   Overcast
6:35 PM 29.1 °F 22.1 °F 21.4 °F 73% 30.00 in 10.0 mi NW 6.9 mph - N/A Snow Light Snow
6:55 PM 28.8 °F 22.6 °F 21.0 °F 73% 30.01 in 10.0 mi WNW 5.8 mph - N/A   Overcast
7:35 PM 28.2 °F 20.2 °F 21.6 °F 76% 30.02 in 10.0 mi WNW 8.1 mph - N/A Snow Light Snow
7:55 PM 28.2 °F 22.0 °F 21.7 °F 77% 30.02 in 10.0 mi WNW 5.8 mph - N/A Snow Light Snow
8:15 PM 28.0 °F 20.8 °F 21.9 °F 78% 30.02 in 10.0 mi WNW 6.9 mph - N/A   Overcast
8:35 PM 27.7 °F 20.4 °F 22.1 °F 80% 30.02 in 10.0 mi WNW 6.9 mph - N/A Snow Light Snow
8:55 PM 27.5 °F 19.3 °F 22.1 °F 80% 30.02 in 10.0 mi WNW 8.1 mph - N/A   Overcast
9:15 PM 27.5 °F 20.2 °F 22.1 °F 80% 30.03 in 10.0 mi NW 6.9 mph - N/A Snow Light Snow
9:35 PM 27.5 °F 21.1 °F 22.5 °F 81% 30.03 in 7.0 mi WNW 5.8 mph - N/A Snow Light Snow
9:55 PM 27.3 °F 20.9 °F 23.0 °F 84% 30.03 in 7.0 mi WNW 5.8 mph - N/A Snow Light Snow
10:15 PM 27.1 °F 20.7 °F 22.6 °F 83% 30.02 in 7.0 mi WNW 5.8 mph - N/A Snow Light Snow
10:35 PM 27.0 °F 20.5 °F 22.6 °F 84% 30.02 in 10.0 mi WNW 5.8 mph - N/A Snow Light Snow
10:55 PM 27.0 °F 18.7 °F 22.5 °F 83% 30.02 in 10.0 mi WNW 8.1 mph - N/A Snow Light Snow
11:15 PM 27.0 °F 18.7 °F 22.1 °F 82% 30.02 in 10.0 mi WNW 8.1 mph - N/A Snow Light Snow
11:35 PM 27.0 °F 19.5 °F 21.9 °F 81% 30.02 in 10.0 mi WNW 6.9 mph - N/A Snow Light Snow
11:55 PM 27.0 °F 19.5 °F 21.9 °F 81% 30.02 in 10.0 mi West 6.9 mph - N/A Snow Light Snow